Time,TemperatureF,DewpointF,PressureIn,WindDirection,WindDirectionDegrees,WindSpeedMPH,WindSpeedGustMPH,Humidity,HourlyPrecipIn,Conditions,Clouds,dailyrainin,SoftwareType,DateUTC
2013-02-11 00:00:00,28.8,27.0,29.37,NW,314,4.6,4.6,93,0.00,CLR,,0.00,WeatherDisplay:10.37,2013-02-11 06:00:00,
2013-02-11 00:05:00,28.8,27.0,29.37,NW,326,5.8,5.8,93,0.00,CLR,,0.00,WeatherDisplay:10.37,2013-02-11 06:05:00,
2013-02-11 00:10:00,28.8,27.0,29.37,NW,319,8.1,8.1,93,0.00,CLR,,0.00,WeatherDisplay:10.37,2013-02-11 06:10:00,
2013-02-11 00:15:00,28.8,27.0,29.38,NNW,337,9.2,9.2,93,0.00,CLR,,0.00,WeatherDisplay:10.37,2013-02-11 06:15:00,
2013-02-11 00:20:00,28.8,27.0,29.38,NW,308,11.5,11.5,93,0.00,CLR,,0.00,WeatherDisplay:10.37,2013-02-11 06:20:00,
2013-02-11 00:25:00,28.8,27.0,29.38,NW,319,11.5,11.5,93,0.00,CLR,,0.00,WeatherDisplay:10.37,2013-02-11 06:25:00,
2013-02-11 00:30:00,28.9,27.1,29.38,NW,313,10.4,10.4,93,0.00,CLR,,0.00,WeatherDisplay:10.37,2013-02-11 06:30:00,
2013-02-11 00:35:00,28.8,27.0,29.39,NW,319,10.4,10.4,93,0.00,CLR,,0.00,WeatherDisplay:10.37,2013-02-11 06:35:00,
2013-02-11 00:40:00,28.9,27.1,29.39,NW,319,6.9,6.9,93,0.00,CLR,,0.00,WeatherDisplay:10.37,2013-02-11 06:40:00,
2013-02-11 00:45:00,29.0,27.2,29.39,NW,313,10.4,10.4,93,0.00,CLR,,0.00,WeatherDisplay:10.37,2013-02-11 06:45:00,
2013-02-11 00:50:00,28.9,27.1,29.39,NW,313,5.8,5.8,93,0.00,CLR,,0.00,WeatherDisplay:10.37,2013-02-11 06:50:00,
2013-02-11 00:55:00,28.9,27.1,29.40,NW,313,8.1,8.1,93,0.00,CLR,,0.00,WeatherDisplay:10.37,2013-02-11 06:55:00,
2013-02-11 01:00:00,28.9,27.1,29.40,WNW,303,5.8,5.8,93,0.00,CLR,,0.00,WeatherDisplay:10.37,2013-02-11 07:00:00,
2013-02-11 01:05:00,28.8,27.0,29.40,NW,308,6.9,6.9,93,0.00,CLR,,0.00,WeatherDisplay:10.37,2013-02-11 07:05:00,
2013-02-11 01:10:00,28.6,26.8,29.40,NW,313,11.5,11.5,93,0.00,CLR,,0.00,WeatherDisplay:10.37,2013-02-11 07:10:00,
2013-02-11 01:15:00,28.5,26.7,29.41,NW,322,9.2,9.2,93,0.00,CLR,,0.00,WeatherDisplay:10.37,2013-02-11 07:15:00,
2013-02-11 01:20:00,28.4,26.6,29.41,NW,309,13.8,13.8,93,0.00,CLR,,0.00,WeatherDisplay:10.37,2013-02-11 07:20:00,
2013-02-11 01:25:00,28.3,26.5,29.42,WNW,300,5.0,5.0,93,0.00,CLR,,0.00,WeatherDisplay:10.37,2013-02-11 07:25:00,
2013-02-11 01:30:00,28.3,26.5,29.42,WNW,300,10.4,10.4,93,0.00,CLR,,0.00,WeatherDisplay:10.37,2013-02-11 07:30:00,
2013-02-11 01:35:00,28.2,26.4,29.42,WNW,300,11.5,11.5,93,0.00,CLR,,0.00,WeatherDisplay:10.37,2013-02-11 07:35:00,
2013-02-11 01:41:00,28.1,26.3,29.43,WNW,303,10.4,10.4,93,0.00,CLR,,0.00,WeatherDisplay:10.37,2013-02-11 07:41:00,
2013-02-11 01:45:00,28.1,26.3,29.43,NW,317,9.2,9.2,93,0.00,CLR,,0.00,WeatherDisplay:10.37,2013-02-11 07:45:00,
2013-02-11 01:51:00,28.1,26.3,29.44,NW,309,6.9,6.9,93,0.00,CLR,,0.00,WeatherDisplay:10.37,2013-02-11 07:51:00,
2013-02-11 01:56:00,28.0,26.2,29.44,NNW,334,8.0,8.0,93,0.00,CLR,,0.00,WeatherDisplay:10.37,2013-02-11 07:56:00,
2013-02-11 02:01:00,28.0,26.2,29.44,NW,325,12.7,12.7,93,0.00,CLR,,0.00,WeatherDisplay:10.37,2013-02-11 08:01:00,
2013-02-11 02:06:00,28.0,26.2,29.44,NW,316,5.8,5.8,93,0.00,CLR,,0.00,WeatherDisplay:10.37,2013-02-11 08:06:00,
2013-02-11 02:11:00,28.0,26.2,29.45,NW,318,11.5,11.5,93,0.00,CLR,,0.00,WeatherDisplay:10.37,2013-02-11 08:11:00,
2013-02-11 02:16:00,28.0,26.2,29.45,WNW,296,10.4,10.4,93,0.00,CLR,,0.00,WeatherDisplay:10.37,2013-02-11 08:16:00,
2013-02-11 02:21:00,28.0,26.2,29.46,NNW,327,17.3,17.3,93,0.00,CLR,,0.00,WeatherDisplay:10.37,2013-02-11 08:21:00,
2013-02-11 02:26:00,28.0,26.2,29.46,WNW,296,9.2,9.2,93,0.00,CLR,,0.00,WeatherDisplay:10.37,2013-02-11 08:26:00,
2013-02-11 02:31:00,28.0,26.2,29.46,WNW,296,9.2,9.2,93,0.00,CLR,,0.00,WeatherDisplay:10.37,2013-02-11 08:31:00,
2013-02-11 02:36:00,28.0,26.2,29.47,NW,320,6.9,6.9,93,0.00,CLR,,0.00,WeatherDisplay:10.37,2013-02-11 08:36:00,
2013-02-11 02:41:00,28.0,26.2,29.47,NW,311,9.2,9.2,93,0.00,CLR,,0.00,WeatherDisplay:10.37,2013-02-11 08:41:00,
2013-02-11 02:46:00,28.0,26.2,29.48,WNW,299,11.5,11.5,93,0.00,CLR,,0.00,WeatherDisplay:10.37,2013-02-11 08:46:00,
2013-02-11 02:51:00,28.0,26.2,29.48,NW,309,12.7,12.7,93,0.00,CLR,,0.00,WeatherDisplay:10.37,2013-02-11 08:51:00,
2013-02-11 02:56:00,28.0,26.2,29.48,WNW,301,5.0,5.0,93,0.00,CLR,,0.00,WeatherDisplay:10.37,2013-02-11 08:56:00,
2013-02-11 03:01:00,27.9,26.1,29.49,NNW,333,11.5,11.5,93,0.00,CLR,,0.00,WeatherDisplay:10.37,2013-02-11 09:01:00,
2013-02-11 03:06:00,27.9,26.1,29.49,North,355,10.0,10.0,93,0.00,CLR,,0.00,WeatherDisplay:10.37,2013-02-11 09:06:00,
2013-02-11 03:11:00,27.9,26.1,29.49,NNW,331,11.5,11.5,93,0.00,CLR,,0.00,WeatherDisplay:10.37,2013-02-11 09:11:00,
2013-02-11 03:16:00,27.8,25.8,29.49,NW,313,12.7,12.7,92,0.00,CLR,,0.00,WeatherDisplay:10.37,2013-02-11 09:16:00,
2013-02-11 03:21:00,27.8,25.8,29.49,NW,317,11.5,11.5,92,0.00,CLR,,0.00,WeatherDisplay:10.37,2013-02-11 09:21:00,
2013-02-11 03:26:00,27.8,25.8,29.50,NW,315,10.4,10.4,92,0.00,CLR,,0.00,WeatherDisplay:10.37,2013-02-11 09:26:00,
2013-02-11 03:31:00,27.7,25.7,29.50,NW,325,16.1,16.1,92,0.00,CLR,,0.00,WeatherDisplay:10.37,2013-02-11 09:31:00,
2013-02-11 03:36:00,27.7,25.7,29.50,WNW,302,10.4,10.4,92,0.00,CLR,,0.00,WeatherDisplay:10.37,2013-02-11 09:36:00,
2013-02-11 03:41:00,27.6,25.6,29.51,NW,311,11.5,11.5,92,0.00,CLR,,0.00,WeatherDisplay:10.37,2013-02-11 09:41:00,
2013-02-11 03:46:00,27.5,25.2,29.51,NNW,342,11.5,11.5,91,0.00,CLR,,0.00,WeatherDisplay:10.37,2013-02-11 09:46:00,
2013-02-11 03:51:00,27.4,25.4,29.51,NNW,330,11.5,11.5,92,0.00,CLR,,0.00,WeatherDisplay:10.37,2013-02-11 09:51:00,
2013-02-11 03:56:00,27.4,25.1,29.52,NNW,327,13.8,13.8,91,0.00,CLR,,0.00,WeatherDisplay:10.37,2013-02-11 09:56:00,
2013-02-11 04:01:00,27.4,25.1,29.52,WNW,300,11.5,11.5,91,0.00,CLR,,0.00,WeatherDisplay:10.37,2013-02-11 10:01:00,
2013-02-11 04:06:00,27.4,25.1,29.52,WNW,303,11.5,11.5,91,0.00,CLR,,0.00,WeatherDisplay:10.37,2013-02-11 10:06:00,
2013-02-11 04:11:00,27.4,25.1,29.53,NW,316,13.8,13.8,91,0.00,CLR,,0.00,WeatherDisplay:10.37,2013-02-11 10:11:00,
2013-02-11 04:16:00,27.4,24.9,29.53,NW,321,11.5,11.5,90,0.00,CLR,,0.00,WeatherDisplay:10.37,2013-02-11 10:16:00,
2013-02-11 04:21:00,27.3,24.8,29.54,NW,323,12.7,12.7,90,0.00,CLR,,0.00,WeatherDisplay:10.37,2013-02-11 10:21:00,
2013-02-11 04:26:00,27.3,24.8,29.54,WNW,300,13.8,13.8,90,0.00,CLR,,0.00,WeatherDisplay:10.37,2013-02-11 10:26:00,
2013-02-11 04:31:00,27.3,24.8,29.54,NW,321,11.5,11.5,90,0.00,CLR,,0.00,WeatherDisplay:10.37,2013-02-11 10:31:00,
2013-02-11 04:36:00,27.2,24.7,29.55,NNW,337,13.8,13.8,90,0.00,CLR,,0.00,WeatherDisplay:10.37,2013-02-11 10:36:00,
2013-02-11 04:41:00,27.2,24.4,29.55,NW,324,16.1,16.1,89,0.00,CLR,,0.00,WeatherDisplay:10.37,2013-02-11 10:41:00,
2013-02-11 04:46:00,27.2,24.4,29.55,NNW,328,12.0,12.0,89,0.00,CLR,,0.00,WeatherDisplay:10.37,2013-02-11 10:46:00,
2013-02-11 04:51:00,27.1,24.3,29.56,NW,321,10.4,10.4,89,0.00,CLR,,0.00,WeatherDisplay:10.37,2013-02-11 10:51:00,
2013-02-11 04:56:00,27.0,24.2,29.56,NW,322,11.5,11.5,89,0.00,CLR,,0.00,WeatherDisplay:10.37,2013-02-11 10:56:00,
2013-02-11 05:01:00,27.0,24.2,29.56,WNW,302,11.5,11.5,89,0.00,CLR,,0.00,WeatherDisplay:10.37,2013-02-11 11:01:00,
2013-02-11 05:06:00,26.9,24.1,29.57,NW,314,12.7,12.7,89,0.00,CLR,,0.00,WeatherDisplay:10.37,2013-02-11 11:06:00,
2013-02-11 05:11:00,26.8,23.7,29.57,WNW,303,15.0,15.0,88,0.00,CLR,,0.00,WeatherDisplay:10.37,2013-02-11 11:11:00,
2013-02-11 05:16:00,26.7,23.6,29.58,NW,315,11.5,11.5,88,0.00,CLR,,0.00,WeatherDisplay:10.37,2013-02-11 11:16:00,
2013-02-11 05:21:00,26.6,23.5,29.58,NW,309,15.0,15.0,88,0.00,CLR,,0.00,WeatherDisplay:10.37,2013-02-11 11:21:00,
2013-02-11 05:26:00,26.5,23.4,29.59,NW,304,17.3,17.3,88,0.00,CLR,,0.00,WeatherDisplay:10.37,2013-02-11 11:26:00,
2013-02-11 05:31:00,26.5,23.2,29.59,NW,316,6.9,6.9,87,0.00,CLR,,0.00,WeatherDisplay:10.37,2013-02-11 11:31:00,
2013-02-11 05:36:00,26.3,23.2,29.60,NNW,330,11.5,11.5,88,0.00,CLR,,0.00,WeatherDisplay:10.37,2013-02-11 11:36:00,
2013-02-11 05:41:00,26.3,23.0,29.60,WNW,292,11.0,11.0,87,0.00,CLR,,0.00,WeatherDisplay:10.37,2013-02-11 11:41:00,
2013-02-11 05:46:00,26.2,22.9,29.61,WNW,299,11.5,11.5,87,0.00,CLR,,0.00,WeatherDisplay:10.37,2013-02-11 11:46:00,
2013-02-11 05:51:00,26.1,22.8,29.61,WNW,301,13.8,13.8,87,0.00,CLR,,0.00,WeatherDisplay:10.37,2013-02-11 11:51:00,
2013-02-11 05:56:00,26.0,22.4,29.62,WNW,285,13.8,13.8,86,0.00,CLR,,0.00,WeatherDisplay:10.37,2013-02-11 11:56:00,
2013-02-11 06:01:00,25.9,22.3,29.62,NW,304,15.0,15.0,86,0.00,CLR,,0.00,WeatherDisplay:10.37,2013-02-11 12:01:00,
2013-02-11 06:06:00,25.8,22.2,29.62,WNW,294,10.4,10.4,86,0.00,CLR,,0.00,WeatherDisplay:10.37,2013-02-11 12:06:00,
2013-02-11 06:11:00,25.7,22.1,29.63,NW,318,10.4,10.4,86,0.00,CLR,,0.00,WeatherDisplay:10.37,2013-02-11 12:11:00,
2013-02-11 06:16:00,25.5,21.9,29.63,NW,311,17.3,17.3,86,0.00,CLR,,0.00,WeatherDisplay:10.37,2013-02-11 12:16:00,
2013-02-11 06:21:00,25.4,21.8,29.64,NW,304,12.7,12.7,86,0.00,CLR,,0.00,WeatherDisplay:10.37,2013-02-11 12:21:00,
2013-02-11 06:26:00,25.3,21.7,29.64,WNW,294,11.5,11.5,86,0.00,CLR,,0.00,WeatherDisplay:10.37,2013-02-11 12:26:00,
2013-02-11 06:31:00,25.3,21.7,29.64,WNW,292,13.0,13.0,86,0.00,CLR,,0.00,WeatherDisplay:10.37,2013-02-11 12:31:00,
2013-02-11 06:36:00,25.2,21.3,29.65,WNW,302,11.5,11.5,85,0.00,CLR,,0.00,WeatherDisplay:10.37,2013-02-11 12:36:00,
2013-02-11 06:41:00,25.2,21.3,29.66,NW,312,11.5,11.5,85,0.00,CLR,,0.00,WeatherDisplay:10.37,2013-02-11 12:41:00,
2013-02-11 06:46:00,25.1,21.2,29.66,NW,313,10.4,10.4,85,0.00,CLR,,0.00,WeatherDisplay:10.37,2013-02-11 12:46:00,
2013-02-11 06:51:00,24.8,21.2,29.66,NW,319,13.8,13.8,86,0.00,CLR,,0.00,WeatherDisplay:10.37,2013-02-11 12:51:00,
2013-02-11 06:57:00,24.5,20.9,29.67,NW,319,11.5,11.5,86,0.00,CLR,,0.00,WeatherDisplay:10.37,2013-02-11 12:57:00,
2013-02-11 07:02:00,24.5,21.2,29.67,NW,306,15.0,15.0,87,0.00,CLR,,0.00,WeatherDisplay:10.37,2013-02-11 13:02:00,
2013-02-11 07:07:00,24.5,20.9,29.68,WNW,294,13.8,13.8,86,0.00,CLR,,0.00,WeatherDisplay:10.37,2013-02-11 13:07:00,
2013-02-11 07:12:00,24.5,20.9,29.68,WNW,299,15.0,15.0,86,0.00,CLR,,0.00,WeatherDisplay:10.37,2013-02-11 13:12:00,
2013-02-11 07:17:00,24.5,20.6,29.68,WNW,286,13.8,13.8,85,0.00,CLR,,0.00,WeatherDisplay:10.37,2013-02-11 13:17:00,
2013-02-11 07:22:00,24.5,20.4,29.68,NW,307,13.8,13.8,84,0.00,CLR,,0.00,WeatherDisplay:10.37,2013-02-11 13:22:00,
2013-02-11 07:27:00,24.4,20.3,29.69,WNW,298,13.8,13.8,84,0.00,CLR,,0.00,WeatherDisplay:10.37,2013-02-11 13:27:00,
2013-02-11 07:32:00,24.3,20.4,29.69,NW,305,13.8,13.8,85,0.00,CLR,,0.00,WeatherDisplay:10.37,2013-02-11 13:32:00,
2013-02-11 07:37:00,24.2,20.3,29.70,NW,306,6.9,6.9,85,0.00,CLR,,0.00,WeatherDisplay:10.37,2013-02-11 13:37:00,
2013-02-11 07:42:00,24.0,20.4,29.70,WNW,296,3.5,3.5,86,0.00,CLR,,0.00,WeatherDisplay:10.37,2013-02-11 13:42:00,
2013-02-11 07:47:00,23.8,20.5,29.71,WNW,300,11.5,11.5,87,0.00,CLR,,0.00,WeatherDisplay:10.37,2013-02-11 13:47:00,
2013-02-11 07:52:00,23.7,20.4,29.71,WNW,300,17.3,17.3,87,0.00,CLR,,0.00,WeatherDisplay:10.37,2013-02-11 13:52:00,
2013-02-11 07:57:00,23.7,20.4,29.71,NW,321,11.5,11.5,87,0.00,CLR,,0.00,WeatherDisplay:10.37,2013-02-11 13:57:00,
2013-02-11 08:02:00,23.6,20.3,29.72,North,360,11.5,11.5,87,0.00,CLR,,0.00,WeatherDisplay:10.37,2013-02-11 14:02:00,
2013-02-11 08:07:00,23.7,20.4,29.73,WNW,299,11.5,11.5,87,0.00,CLR,,0.00,WeatherDisplay:10.37,2013-02-11 14:07:00,
2013-02-11 08:12:00,23.7,20.1,29.73,WNW,288,9.2,9.2,86,0.00,CLR,,0.00,WeatherDisplay:10.37,2013-02-11 14:12:00,
2013-02-11 08:17:00,23.6,20.0,29.73,WNW,300,10.4,10.4,86,0.00,CLR,,0.00,WeatherDisplay:10.37,2013-02-11 14:17:00,
2013-02-11 08:22:00,23.7,19.9,29.74,NW,326,11.5,11.5,85,0.00,CLR,,0.00,WeatherDisplay:10.37,2013-02-11 14:22:00,
2013-02-11 08:27:00,23.8,19.7,29.74,WNW,294,10.4,10.4,84,0.00,CLR,,0.00,WeatherDisplay:10.37,2013-02-11 14:27:00,
2013-02-11 08:32:00,23.9,19.5,29.74,NW,306,12.7,12.7,83,0.00,CLR,,0.00,WeatherDisplay:10.37,2013-02-11 14:32:00,
2013-02-11 08:37:00,24.0,19.6,29.75,WNW,294,4.6,4.6,83,0.00,CLR,,0.00,WeatherDisplay:10.37,2013-02-11 14:37:00,
2013-02-11 08:42:00,24.0,19.6,29.75,West,266,10.4,10.4,83,0.00,CLR,,0.00,WeatherDisplay:10.37,2013-02-11 14:42:00,
2013-02-11 08:47:00,24.0,19.0,29.75,NW,310,11.5,11.5,81,0.00,CLR,,0.00,WeatherDisplay:10.37,2013-02-11 14:47:00,
2013-02-11 08:52:00,24.0,19.0,29.76,WNW,300,11.5,11.5,81,0.00,CLR,,0.00,WeatherDisplay:10.37,2013-02-11 14:52:00,
2013-02-11 08:57:00,24.1,19.1,29.76,WNW,284,11.5,11.5,81,0.00,CLR,,0.00,WeatherDisplay:10.37,2013-02-11 14:57:00,
2013-02-11 09:02:00,24.1,19.4,29.76,NW,305,9.2,9.2,82,0.00,CLR,,0.00,WeatherDisplay:10.37,2013-02-11 15:02:00,
2013-02-11 09:07:00,24.1,19.4,29.76,NW,314,10.4,10.4,82,0.00,CLR,,0.00,WeatherDisplay:10.37,2013-02-11 15:07:00,
2013-02-11 09:12:00,24.0,19.0,29.77,NW,322,16.1,16.1,81,0.00,CLR,,0.00,WeatherDisplay:10.37,2013-02-11 15:12:00,
2013-02-11 09:17:00,24.0,19.0,29.77,WNW,297,16.1,16.1,81,0.00,CLR,,0.00,WeatherDisplay:10.37,2013-02-11 15:17:00,
2013-02-11 09:22:00,24.0,19.0,29.77,North,350,13.8,13.8,81,0.00,CLR,,0.00,WeatherDisplay:10.37,2013-02-11 15:22:00,
2013-02-11 09:27:00,24.1,19.1,29.78,NW,309,10.0,10.0,81,0.00,CLR,,0.00,WeatherDisplay:10.37,2013-02-11 15:27:00,
2013-02-11 09:32:00,24.2,19.2,29.78,West,278,11.5,11.5,81,0.00,CLR,,0.00,WeatherDisplay:10.37,2013-02-11 15:32:00,
2013-02-11 09:37:00,24.3,19.3,29.78,NW,307,16.1,16.1,81,0.00,CLR,,0.00,WeatherDisplay:10.37,2013-02-11 15:37:00,
2013-02-11 09:42:00,24.4,19.1,29.78,NW,321,12.7,12.7,80,0.00,CLR,,0.00,WeatherDisplay:10.37,2013-02-11 15:42:00,
2013-02-11 09:47:00,24.5,19.2,29.79,NW,318,23.0,23.0,80,0.00,CLR,,0.00,WeatherDisplay:10.37,2013-02-11 15:47:00,
2013-02-11 09:52:00,24.5,19.2,29.79,NW,311,9.2,9.2,80,0.00,CLR,,0.00,WeatherDisplay:10.37,2013-02-11 15:52:00,
2013-02-11 09:57:00,24.5,18.9,29.79,NW,319,18.4,18.4,79,0.00,CLR,,0.00,WeatherDisplay:10.37,2013-02-11 15:57:00,
2013-02-11 10:02:00,24.6,19.3,29.80,WNW,299,11.5,11.5,80,0.00,CLR,,0.00,WeatherDisplay:10.37,2013-02-11 16:02:00,
2013-02-11 10:07:00,24.7,19.4,29.80,NW,313,15.0,15.0,80,0.00,CLR,,0.00,WeatherDisplay:10.37,2013-02-11 16:07:00,
2013-02-11 10:12:00,24.6,19.0,29.80,NW,309,16.1,16.1,79,0.00,CLR,,0.00,WeatherDisplay:10.37,2013-02-11 16:12:00,
2013-02-11 10:17:00,24.6,19.3,29.81,NW,309,17.3,17.3,80,0.00,CLR,,0.00,WeatherDisplay:10.37,2013-02-11 16:17:00,
2013-02-11 10:22:00,24.6,19.0,29.81,NNW,329,11.5,11.5,79,0.00,CLR,,0.00,WeatherDisplay:10.37,2013-02-11 16:22:00,
2013-02-11 10:27:00,24.5,18.9,29.81,NW,311,17.3,17.3,79,0.00,CLR,,0.00,WeatherDisplay:10.37,2013-02-11 16:27:00,
2013-02-11 10:32:00,24.5,18.9,29.82,NW,304,21.9,21.9,79,0.00,CLR,,0.00,WeatherDisplay:10.37,2013-02-11 16:32:00,
2013-02-11 10:37:00,24.6,19.3,29.82,WNW,302,11.5,11.5,80,0.00,CLR,,0.00,WeatherDisplay:10.37,2013-02-11 16:37:00,
2013-02-11 10:42:00,24.5,18.9,29.82,NNW,335,13.8,13.8,79,0.00,CLR,,0.00,WeatherDisplay:10.37,2013-02-11 16:42:00,
2013-02-11 10:47:00,24.4,18.5,29.83,NNW,331,17.3,17.3,78,0.00,CLR,,0.00,WeatherDisplay:10.37,2013-02-11 16:47:00,
2013-02-11 10:52:00,24.5,18.6,29.83,NNW,333,11.5,11.5,78,0.00,CLR,,0.00,WeatherDisplay:10.37,2013-02-11 16:52:00,
2013-02-11 10:57:00,24.5,18.6,29.83,NNE,25,13.8,13.8,78,0.00,CLR,,0.00,WeatherDisplay:10.37,2013-02-11 16:57:00,
2013-02-11 11:02:00,24.5,18.6,29.83,NNW,329,15.0,15.0,78,0.00,CLR,,0.00,WeatherDisplay:10.37,2013-02-11 17:02:00,
2013-02-11 11:08:00,24.5,18.3,29.84,WNW,292,12.7,12.7,77,0.00,CLR,,0.00,WeatherDisplay:10.37,2013-02-11 17:08:00,
2013-02-11 11:13:00,24.7,18.5,29.84,NW,308,20.7,20.7,77,0.00,CLR,,0.00,WeatherDisplay:10.37,2013-02-11 17:13:00,
2013-02-11 11:18:00,24.8,18.9,29.84,WNW,286,10.4,11.0,78,0.00,CLR,,0.00,WeatherDisplay:10.37,2013-02-11 17:18:00,
2013-02-11 11:23:00,24.5,18.0,29.84,WNW,282,18.4,18.4,76,0.00,CLR,,0.00,WeatherDisplay:10.37,2013-02-11 17:23:00,
2013-02-11 11:28:00,24.3,17.5,29.85,NW,315,17.3,17.3,75,0.00,CLR,,0.00,WeatherDisplay:10.37,2013-02-11 17:28:00,
2013-02-11 11:33:00,24.4,17.9,29.85,NW,312,26.5,26.5,76,0.00,CLR,,0.00,WeatherDisplay:10.37,2013-02-11 17:33:00,
2013-02-11 11:38:00,24.4,17.9,29.85,NW,310,16.1,16.1,76,0.00,CLR,,0.00,WeatherDisplay:10.37,2013-02-11 17:38:00,
2013-02-11 11:43:00,24.5,18.0,29.85,NW,323,11.5,11.5,76,0.00,CLR,,0.00,WeatherDisplay:10.37,2013-02-11 17:43:00,
2013-02-11 11:48:00,24.4,17.6,29.86,NW,315,18.4,18.4,75,0.00,CLR,,0.00,WeatherDisplay:10.37,2013-02-11 17:48:00,
2013-02-11 11:53:00,24.5,18.0,29.86,NW,318,27.6,27.6,76,0.00,CLR,,0.00,WeatherDisplay:10.37,2013-02-11 17:53:00,
2013-02-11 11:58:00,24.4,17.6,29.86,NW,306,15.0,15.0,75,0.00,CLR,,0.00,WeatherDisplay:10.37,2013-02-11 17:58:00,
2013-02-11 12:03:00,24.5,18.0,29.86,NW,304,19.6,19.6,76,0.00,CLR,,0.00,WeatherDisplay:10.37,2013-02-11 18:03:00,
2013-02-11 12:08:00,24.6,17.8,29.86,NW,315,16.1,16.1,75,0.00,CLR,,0.00,WeatherDisplay:10.37,2013-02-11 18:08:00,
2013-02-11 12:13:00,24.8,18.3,29.87,WNW,292,11.5,11.5,76,0.00,CLR,,0.00,WeatherDisplay:10.37,2013-02-11 18:13:00,
2013-02-11 12:18:00,24.8,18.0,29.87,NW,315,15.0,15.0,75,0.00,CLR,,0.00,WeatherDisplay:10.37,2013-02-11 18:18:00,
2013-02-11 12:23:00,24.7,17.9,29.87,WNW,294,19.6,19.6,75,0.00,CLR,,0.00,WeatherDisplay:10.37,2013-02-11 18:23:00,
2013-02-11 12:28:00,24.7,17.9,29.87,WNW,286,11.5,11.5,75,0.00,CLR,,0.00,WeatherDisplay:10.37,2013-02-11 18:28:00,
2013-02-11 12:33:00,24.6,17.8,29.88,NW,309,17.3,17.3,75,0.00,CLR,,0.00,WeatherDisplay:10.37,2013-02-11 18:33:00,
2013-02-11 12:38:00,24.6,17.8,29.88,WNW,284,16.1,16.1,75,0.00,CLR,,0.00,WeatherDisplay:10.37,2013-02-11 18:38:00,
2013-02-11 12:43:00,24.5,17.7,29.88,NW,321,15.0,15.0,75,0.00,CLR,,0.00,WeatherDisplay:10.37,2013-02-11 18:43:00,
2013-02-11 12:48:00,24.6,17.8,29.88,NW,304,17.3,17.3,75,0.00,CLR,,0.00,WeatherDisplay:10.37,2013-02-11 18:48:00,
2013-02-11 12:53:00,24.7,18.2,29.89,West,281,12.7,12.7,76,0.00,CLR,,0.00,WeatherDisplay:10.37,2013-02-11 18:53:00,
2013-02-11 12:58:00,24.8,18.3,29.89,WNW,286,5.8,5.8,76,0.00,CLR,,0.00,WeatherDisplay:10.37,2013-02-11 18:58:00,
2013-02-11 13:03:00,24.8,18.3,29.89,NW,319,18.4,18.4,76,0.00,CLR,,0.00,WeatherDisplay:10.37,2013-02-11 19:03:00,
2013-02-11 13:08:00,24.6,17.8,29.89,NW,316,20.7,20.7,75,0.00,CLR,,0.00,WeatherDisplay:10.37,2013-02-11 19:08:00,
2013-02-11 13:13:00,24.7,17.9,29.89,WNW,302,15.0,15.0,75,0.00,CLR,,0.00,WeatherDisplay:10.37,2013-02-11 19:13:00,
2013-02-11 13:18:00,24.6,17.8,29.90,NW,322,13.8,13.8,75,0.00,CLR,,0.00,WeatherDisplay:10.37,2013-02-11 19:18:00,
2013-02-11 13:23:00,24.5,17.7,29.90,WNW,297,9.2,9.2,75,0.00,CLR,,0.00,WeatherDisplay:10.37,2013-02-11 19:23:00,
2013-02-11 13:28:00,24.4,17.3,29.90,WNW,292,21.9,21.9,74,0.00,CLR,,0.00,WeatherDisplay:10.37,2013-02-11 19:28:00,
2013-02-11 13:33:00,24.4,17.6,29.90,WNW,294,15.0,15.0,75,0.00,CLR,,0.00,WeatherDisplay:10.37,2013-02-11 19:33:00,
2013-02-11 13:38:00,24.3,17.5,29.90,NW,326,19.6,19.6,75,0.00,CLR,,0.00,WeatherDisplay:10.37,2013-02-11 19:38:00,
2013-02-11 13:43:00,24.4,17.6,29.91,NW,314,15.0,15.0,75,0.00,CLR,,0.00,WeatherDisplay:10.37,2013-02-11 19:43:00,
2013-02-11 13:48:00,24.4,17.6,29.90,WNW,292,17.3,17.3,75,0.00,CLR,,0.00,WeatherDisplay:10.37,2013-02-11 19:48:00,
2013-02-11 13:53:00,24.3,17.5,29.91,NW,311,15.0,15.0,75,0.00,CLR,,0.00,WeatherDisplay:10.37,2013-02-11 19:53:00,
2013-02-11 13:58:00,24.3,17.8,29.91,WNW,296,11.5,11.5,76,0.00,CLR,,0.00,WeatherDisplay:10.37,2013-02-11 19:58:00,
2013-02-11 14:03:00,24.1,17.6,29.91,WSW,254,13.8,13.8,76,0.00,CLR,,0.00,WeatherDisplay:10.37,2013-02-11 20:03:00,
2013-02-11 14:08:00,23.9,17.4,29.92,West,259,13.8,13.8,76,0.00,CLR,,0.00,WeatherDisplay:10.37,2013-02-11 20:08:00,
2013-02-11 14:13:00,23.9,17.4,29.92,West,281,17.3,17.3,76,0.00,CLR,,0.00,WeatherDisplay:10.37,2013-02-11 20:13:00,
2013-02-11 14:18:00,23.9,17.1,29.92,West,261,18.4,18.4,75,0.00,CLR,,0.00,WeatherDisplay:10.37,2013-02-11 20:18:00,
2013-02-11 14:23:00,23.8,17.0,29.92,West,273,19.6,19.6,75,0.00,CLR,,0.00,WeatherDisplay:10.37,2013-02-11 20:23:00,
2013-02-11 14:28:00,23.9,17.4,29.92,WNW,296,10.4,10.4,76,0.00,CLR,,0.00,WeatherDisplay:10.37,2013-02-11 20:28:00,
2013-02-11 14:33:00,23.9,17.4,29.92,WNW,284,17.3,17.3,76,0.00,CLR,,0.00,WeatherDisplay:10.37,2013-02-11 20:33:00,
2013-02-11 14:38:00,24.0,17.5,29.93,WNW,284,19.6,19.6,76,0.00,CLR,,0.00,WeatherDisplay:10.37,2013-02-11 20:38:00,
2013-02-11 14:43:00,23.9,17.4,29.93,WNW,292,12.7,12.7,76,0.00,CLR,,0.00,WeatherDisplay:10.37,2013-02-11 20:43:00,
2013-02-11 14:48:00,24.0,17.8,29.93,WNW,292,5.8,5.8,77,0.00,CLR,,0.00,WeatherDisplay:10.37,2013-02-11 20:48:00,
2013-02-11 14:53:00,24.0,17.5,29.93,NW,317,11.5,11.5,76,0.00,CLR,,0.00,WeatherDisplay:10.37,2013-02-11 20:53:00,
2013-02-11 14:58:00,23.9,17.4,29.94,NW,311,13.8,13.8,76,0.00,CLR,,0.00,WeatherDisplay:10.37,2013-02-11 20:58:00,
2013-02-11 15:03:00,23.9,17.4,29.94,WNW,303,18.4,18.4,76,0.00,CLR,,0.00,WeatherDisplay:10.37,2013-02-11 21:03:00,
2013-02-11 15:08:00,23.9,17.4,29.95,NW,315,6.9,6.9,76,0.00,CLR,,0.00,WeatherDisplay:10.37,2013-02-11 21:08:00,
2013-02-11 15:13:00,23.7,16.9,29.95,NW,313,19.6,19.6,75,0.00,CLR,,0.00,WeatherDisplay:10.37,2013-02-11 21:13:00,
2013-02-11 15:18:00,23.5,16.7,29.95,WNW,287,18.4,18.4,75,0.00,CLR,,0.00,WeatherDisplay:10.37,2013-02-11 21:18:00,
2013-02-11 15:23:00,23.4,16.9,29.95,WNW,295,19.6,19.6,76,0.00,CLR,,0.00,WeatherDisplay:10.37,2013-02-11 21:23:00,
2013-02-11 15:28:00,23.4,17.3,29.95,WNW,302,11.5,11.5,77,0.00,CLR,,0.00,WeatherDisplay:10.37,2013-02-11 21:28:00,
2013-02-11 15:33:00,23.4,17.3,29.96,NNW,329,17.3,17.3,77,0.00,CLR,,0.00,WeatherDisplay:10.37,2013-02-11 21:33:00,
2013-02-11 15:38:00,23.3,17.2,29.96,WNW,294,15.0,15.0,77,0.00,CLR,,0.00,WeatherDisplay:10.37,2013-02-11 21:38:00,
2013-02-11 15:44:00,23.1,16.7,29.96,WNW,292,19.6,19.6,76,0.00,CLR,,0.00,WeatherDisplay:10.37,2013-02-11 21:44:00,
2013-02-11 15:49:00,23.0,16.6,29.96,NW,315,17.3,17.3,76,0.00,CLR,,0.00,WeatherDisplay:10.37,2013-02-11 21:49:00,
2013-02-11 15:54:00,22.9,16.8,29.96,NW,308,12.7,12.7,77,0.00,CLR,,0.00,WeatherDisplay:10.37,2013-02-11 21:54:00,
2013-02-11 15:59:00,22.9,16.8,29.97,WNW,302,10.4,10.4,77,0.00,CLR,,0.00,WeatherDisplay:10.37,2013-02-11 21:59:00,
2013-02-11 16:04:00,22.7,16.3,29.97,West,266,24.2,24.2,76,0.00,CLR,,0.00,WeatherDisplay:10.37,2013-02-11 22:04:00,
2013-02-11 16:09:00,22.5,16.1,29.97,WNW,286,19.6,19.6,76,0.00,CLR,,0.00,WeatherDisplay:10.37,2013-02-11 22:09:00,
2013-02-11 16:14:00,22.4,16.0,29.97,WNW,299,9.2,9.2,76,0.00,CLR,,0.00,WeatherDisplay:10.37,2013-02-11 22:14:00,
2013-02-11 16:19:00,22.2,15.8,29.97,NW,304,16.1,16.1,76,0.00,CLR,,0.00,WeatherDisplay:10.37,2013-02-11 22:19:00,
2013-02-11 16:24:00,22.3,16.2,29.98,NW,304,9.2,9.2,77,0.00,CLR,,0.00,WeatherDisplay:10.37,2013-02-11 22:24:00,
2013-02-11 16:29:00,22.1,15.7,29.98,NW,315,17.3,17.3,76,0.00,CLR,,0.00,WeatherDisplay:10.37,2013-02-11 22:29:00,
2013-02-11 16:34:00,22.1,15.7,29.98,NW,312,12.7,12.7,76,0.00,CLR,,0.00,WeatherDisplay:10.37,2013-02-11 22:34:00,
2013-02-11 16:39:00,21.9,15.5,29.99,NNW,333,18.4,18.4,76,0.00,CLR,,0.00,WeatherDisplay:10.37,2013-02-11 22:39:00,
2013-02-11 16:44:00,21.8,15.4,29.99,NW,317,13.0,13.0,76,0.00,CLR,,0.00,WeatherDisplay:10.37,2013-02-11 22:44:00,
2013-02-11 16:49:00,21.8,15.7,29.99,NW,309,9.2,9.2,77,0.00,CLR,,0.00,WeatherDisplay:10.37,2013-02-11 22:49:00,
2013-02-11 16:54:00,21.7,15.6,29.99,WNW,298,5.8,5.8,77,0.00,CLR,,0.00,WeatherDisplay:10.37,2013-02-11 22:54:00,
2013-02-11 16:59:00,21.6,15.5,29.99,WNW,295,11.5,11.5,77,0.00,CLR,,0.00,WeatherDisplay:10.37,2013-02-11 22:59:00,
2013-02-11 17:04:00,21.4,15.3,30.00,WNW,292,11.5,11.5,77,0.00,CLR,,0.00,WeatherDisplay:10.37,2013-02-11 23:04:00,
2013-02-11 17:09:00,21.2,14.8,30.00,WNW,302,11.5,11.5,76,0.00,CLR,,0.00,WeatherDisplay:10.37,2013-02-11 23:09:00,
2013-02-11 17:14:00,21.1,14.4,30.00,West,280,15.0,15.0,75,0.00,CLR,,0.00,WeatherDisplay:10.37,2013-02-11 23:14:00,
2013-02-11 17:19:00,20.9,14.5,30.00,WSW,250,16.0,16.0,76,0.00,CLR,,0.00,WeatherDisplay:10.37,2013-02-11 23:19:00,
2013-02-11 17:24:00,20.8,14.4,30.00,NW,306,16.1,16.1,76,0.00,CLR,,0.00,WeatherDisplay:10.37,2013-02-11 23:24:00,
2013-02-11 17:29:00,20.7,14.0,30.01,NW,309,12.7,12.7,75,0.00,CLR,,0.00,WeatherDisplay:10.37,2013-02-11 23:29:00,
2013-02-11 17:34:00,20.6,14.2,30.01,WNW,286,11.5,11.5,76,0.00,CLR,,0.00,WeatherDisplay:10.37,2013-02-11 23:34:00,
2013-02-11 17:39:00,20.5,14.1,30.01,NW,309,8.1,8.1,76,0.00,CLR,,0.00,WeatherDisplay:10.37,2013-02-11 23:39:00,
2013-02-11 17:44:00,20.4,13.7,30.01,WNW,290,16.1,16.1,75,0.00,CLR,,0.00,WeatherDisplay:10.37,2013-02-11 23:44:00,
2013-02-11 17:49:00,20.3,13.9,30.01,WNW,300,12.7,12.7,76,0.00,CLR,,0.00,WeatherDisplay:10.37,2013-02-11 23:49:00,
2013-02-11 17:54:00,20.3,13.9,30.01,NW,313,15.0,15.0,76,0.00,CLR,,0.00,WeatherDisplay:10.37,2013-02-11 23:54:00,
2013-02-11 17:59:00,20.3,13.9,30.02,West,280,11.5,11.5,76,0.00,CLR,,0.00,WeatherDisplay:10.37,2013-02-11 23:59:00,
2013-02-11 18:04:00,20.3,13.9,30.02,NW,316,8.1,8.1,76,0.00,CLR,,0.00,WeatherDisplay:10.37,2013-02-12 00:04:00,
2013-02-11 18:09:00,20.2,13.8,30.02,NW,313,5.8,5.8,76,0.00,CLR,,0.00,WeatherDisplay:10.37,2013-02-12 00:09:00,
2013-02-11 18:14:00,20.0,13.0,30.02,NW,311,19.6,19.6,74,0.00,CLR,,0.00,WeatherDisplay:10.37,2013-02-12 00:14:00,
2013-02-11 18:19:00,19.7,12.8,30.02,NW,319,18.4,18.4,74,0.00,CLR,,0.00,WeatherDisplay:10.37,2013-02-12 00:19:00,
2013-02-11 18:24:00,19.7,12.4,30.03,West,278,11.5,11.5,73,0.00,CLR,,0.00,WeatherDisplay:10.37,2013-02-12 00:24:00,
2013-02-11 18:29:00,19.7,12.4,30.03,WNW,285,15.0,15.0,73,0.00,CLR,,0.00,WeatherDisplay:10.37,2013-02-12 00:29:00,
2013-02-11 18:34:00,19.6,12.3,30.03,West,281,13.8,13.8,73,0.00,CLR,,0.00,WeatherDisplay:10.37,2013-02-12 00:34:00,
2013-02-11 18:39:00,19.5,12.3,30.03,NW,308,19.6,19.6,73,0.00,CLR,,0.00,WeatherDisplay:10.37,2013-02-12 00:39:00,
2013-02-11 18:44:00,19.4,12.2,30.03,WNW,296,11.5,11.5,73,0.00,CLR,,0.00,WeatherDisplay:10.37,2013-02-12 00:44:00,
2013-02-11 18:49:00,19.4,12.2,30.03,WNW,299,15.0,15.0,73,0.00,CLR,,0.00,WeatherDisplay:10.37,2013-02-12 00:49:00,
2013-02-11 18:54:00,19.3,12.1,30.03,WNW,291,17.3,17.3,73,0.00,CLR,,0.00,WeatherDisplay:10.37,2013-02-12 00:54:00,
2013-02-11 18:59:00,19.2,12.0,30.03,West,279,19.6,19.6,73,0.00,CLR,,0.00,WeatherDisplay:10.37,2013-02-12 00:59:00,
2013-02-11 19:04:00,19.1,11.9,30.04,WNW,300,15.0,15.0,73,0.00,CLR,,0.00,WeatherDisplay:10.37,2013-02-12 01:04:00,
2013-02-11 19:09:00,19.1,12.2,30.04,WNW,294,12.0,12.0,74,0.00,CLR,,0.00,WeatherDisplay:10.37,2013-02-12 01:09:00,
2013-02-11 19:14:00,19.1,12.2,30.04,NW,304,15.0,15.0,74,0.00,CLR,,0.00,WeatherDisplay:10.37,2013-02-12 01:14:00,
2013-02-11 19:19:00,19.1,12.2,30.04,NNW,334,6.9,6.9,74,0.00,CLR,,0.00,WeatherDisplay:10.37,2013-02-12 01:19:00,
2013-02-11 19:24:00,19.0,12.1,30.03,WNW,283,13.8,13.8,74,0.00,CLR,,0.00,WeatherDisplay:10.37,2013-02-12 01:24:00,
2013-02-11 19:29:00,19.0,12.4,30.04,WNW,290,13.8,13.8,75,0.00,CLR,,0.00,WeatherDisplay:10.37,2013-02-12 01:29:00,
2013-02-11 19:34:00,19.0,12.4,30.04,NW,306,13.8,13.8,75,0.00,CLR,,0.00,WeatherDisplay:10.37,2013-02-12 01:34:00,
2013-02-11 19:39:00,19.0,12.4,30.04,NW,304,5.8,5.8,75,0.00,CLR,,0.00,WeatherDisplay:10.37,2013-02-12 01:39:00,
2013-02-11 19:44:00,19.1,12.5,30.04,NW,307,6.9,6.9,75,0.00,CLR,,0.00,WeatherDisplay:10.37,2013-02-12 01:44:00,
2013-02-11 19:49:00,19.0,12.4,30.04,WNW,287,5.0,5.0,75,0.00,CLR,,0.00,WeatherDisplay:10.37,2013-02-12 01:49:00,
2013-02-11 19:54:00,19.0,12.7,30.04,WNW,299,3.5,4.7,76,0.00,CLR,,0.00,WeatherDisplay:10.37,2013-02-12 01:54:00,
2013-02-11 19:59:00,19.1,12.8,30.04,WNW,302,10.4,10.4,76,0.00,CLR,,0.00,WeatherDisplay:10.37,2013-02-12 01:59:00,
2013-02-11 20:04:00,19.1,12.8,30.04,NW,312,6.9,6.9,76,0.00,CLR,,0.00,WeatherDisplay:10.37,2013-02-12 02:04:00,
2013-02-11 20:09:00,19.1,12.8,30.04,NW,313,4.6,4.6,76,0.00,CLR,,0.00,WeatherDisplay:10.37,2013-02-12 02:09:00,
2013-02-11 20:14:00,19.2,12.9,30.05,WNW,292,10.4,10.4,76,0.00,CLR,,0.00,WeatherDisplay:10.37,2013-02-12 02:14:00,
2013-02-11 20:20:00,19.2,12.9,30.05,NW,313,4.6,4.6,76,0.00,CLR,,0.00,WeatherDisplay:10.37,2013-02-12 02:20:00,
2013-02-11 20:25:00,19.2,12.9,30.05,WNW,298,4.6,4.6,76,0.00,CLR,,0.00,WeatherDisplay:10.37,2013-02-12 02:25:00,
2013-02-11 20:30:00,19.3,13.3,30.05,WNW,292,3.5,3.5,77,0.00,CLR,,0.00,WeatherDisplay:10.37,2013-02-12 02:30:00,
2013-02-11 20:35:00,19.3,13.3,30.05,West,279,6.9,6.9,77,0.00,CLR,,0.00,WeatherDisplay:10.37,2013-02-12 02:35:00,
2013-02-11 20:40:00,19.4,13.4,30.05,WSW,257,6.0,6.0,77,0.00,CLR,,0.00,WeatherDisplay:10.37,2013-02-12 02:40:00,
2013-02-11 20:45:00,19.4,13.4,30.05,West,263,10.4,10.4,77,0.00,CLR,,0.00,WeatherDisplay:10.37,2013-02-12 02:45:00,
2013-02-11 20:50:00,19.5,13.5,30.05,West,275,3.5,3.5,77,0.00,CLR,,0.00,WeatherDisplay:10.37,2013-02-12 02:50:00,
2013-02-11 20:55:00,19.6,13.6,30.06,WNW,287,6.9,6.9,77,0.00,CLR,,0.00,WeatherDisplay:10.37,2013-02-12 02:55:00,
2013-02-11 21:00:00,19.6,13.6,30.05,WNW,299,3.5,3.5,77,0.00,CLR,,0.00,WeatherDisplay:10.37,2013-02-12 03:00:00,
2013-02-11 21:05:00,19.6,13.9,30.06,WSW,254,4.0,4.0,78,0.00,CLR,,0.00,WeatherDisplay:10.37,2013-02-12 03:05:00,
2013-02-11 21:10:00,19.7,14.0,30.06,West,259,4.0,4.0,78,0.00,CLR,,0.00,WeatherDisplay:10.37,2013-02-12 03:10:00,
2013-02-11 21:15:00,19.7,14.0,30.06,NW,311,3.5,3.5,78,0.00,CLR,,0.00,WeatherDisplay:10.37,2013-02-12 03:15:00,
2013-02-11 21:20:00,19.7,14.0,30.07,West,278,6.9,6.9,78,0.00,CLR,,0.00,WeatherDisplay:10.37,2013-02-12 03:20:00,
2013-02-11 21:25:00,19.7,14.0,30.06,West,275,9.2,9.2,78,0.00,CLR,,0.00,WeatherDisplay:10.37,2013-02-12 03:25:00,
2013-02-11 21:30:00,19.7,14.0,30.07,WSW,254,8.1,8.1,78,0.00,CLR,,0.00,WeatherDisplay:10.37,2013-02-12 03:30:00,
2013-02-11 21:35:00,19.7,13.7,30.07,WNW,296,11.5,11.5,77,0.00,CLR,,0.00,WeatherDisplay:10.37,2013-02-12 03:35:00,
2013-02-11 21:40:00,19.7,13.7,30.07,NW,315,6.9,6.9,77,0.00,CLR,,0.00,WeatherDisplay:10.37,2013-02-12 03:40:00,
2013-02-11 21:45:00,19.7,13.7,30.07,WNW,299,9.2,9.2,77,0.00,CLR,,0.00,WeatherDisplay:10.37,2013-02-12 03:45:00,
2013-02-11 21:50:00,19.7,13.7,30.07,NW,309,6.9,6.9,77,0.00,CLR,,0.00,WeatherDisplay:10.37,2013-02-12 03:50:00,
2013-02-11 21:55:00,19.7,14.0,30.07,NNW,329,6.9,6.9,78,0.00,CLR,,0.00,WeatherDisplay:10.37,2013-02-12 03:55:00,
2013-02-11 22:00:00,19.7,14.0,30.07,West,279,9.2,9.2,78,0.00,CLR,,0.00,WeatherDisplay:10.37,2013-02-12 04:00:00,
2013-02-11 22:05:00,19.6,13.9,30.08,WNW,295,3.5,3.5,78,0.00,CLR,,0.00,WeatherDisplay:10.37,2013-02-12 04:05:00,
2013-02-11 22:10:00,19.5,13.8,30.08,NW,304,9.2,9.2,78,0.00,CLR,,0.00,WeatherDisplay:10.37,2013-02-12 04:10:00,
2013-02-11 22:15:00,19.3,13.6,30.08,NNW,327,4.6,4.6,78,0.00,CLR,,0.00,WeatherDisplay:10.37,2013-02-12 04:15:00,
2013-02-11 22:20:00,19.1,13.4,30.08,WNW,292,4.6,4.6,78,0.00,CLR,,0.00,WeatherDisplay:10.37,2013-02-12 04:20:00,
2013-02-11 22:25:00,18.8,13.1,30.08,NW,315,13.8,13.8,78,0.00,CLR,,0.00,WeatherDisplay:10.37,2013-02-12 04:25:00,
2013-02-11 22:30:00,18.6,12.9,30.08,WNW,290,5.8,5.8,78,0.00,CLR,,0.00,WeatherDisplay:10.37,2013-02-12 04:30:00,
2013-02-11 22:35:00,18.2,12.5,30.08,WNW,294,2.3,2.3,78,0.00,CLR,,0.00,WeatherDisplay:10.37,2013-02-12 04:35:00,
2013-02-11 22:40:00,18.0,12.6,30.08,WNW,298,0.0,0.0,79,0.00,CLR,,0.00,WeatherDisplay:10.37,2013-02-12 04:40:00,
2013-02-11 22:45:00,17.6,12.2,30.08,WNW,286,2.3,2.3,79,0.00,CLR,,0.00,WeatherDisplay:10.37,2013-02-12 04:45:00,
2013-02-11 22:50:00,17.4,12.0,30.08,WNW,296,4.6,4.6,79,0.00,CLR,,0.00,WeatherDisplay:10.37,2013-02-12 04:50:00,
2013-02-11 22:55:00,17.2,12.1,30.08,West,268,2.3,2.3,80,0.00,CLR,,0.00,WeatherDisplay:10.37,2013-02-12 04:55:00,
2013-02-11 23:00:00,17.0,11.9,30.08,WNW,303,2.3,2.3,80,0.00,CLR,,0.00,WeatherDisplay:10.37,2013-02-12 05:00:00,
2013-02-11 23:05:00,16.9,11.8,30.09,NW,313,5.8,5.8,80,0.00,CLR,,0.00,WeatherDisplay:10.37,2013-02-12 05:05:00,
2013-02-11 23:10:00,16.7,11.6,30.09,WNW,288,4.6,4.6,80,0.00,CLR,,0.00,WeatherDisplay:10.37,2013-02-12 05:10:00,
2013-02-11 23:15:00,16.6,11.5,30.08,WNW,296,3.5,3.5,80,0.00,CLR,,0.00,WeatherDisplay:10.37,2013-02-12 05:15:00,
2013-02-11 23:21:00,16.4,11.3,30.08,NW,304,2.3,0.0,80,0.00,CLR,,0.00,WeatherDisplay:10.37,2013-02-12 05:21:00,
2013-02-11 23:26:00,16.2,11.1,30.08,WNW,298,0.0,0.0,80,0.00,CLR,,0.00,WeatherDisplay:10.37,2013-02-12 05:26:00,
2013-02-11 23:31:00,16.0,10.9,30.08,WNW,290,2.3,2.3,80,0.00,CLR,,0.00,WeatherDisplay:10.37,2013-02-12 05:31:00,
2013-02-11 23:36:00,16.0,10.9,30.08,WNW,298,2.3,2.3,80,0.00,CLR,,0.00,WeatherDisplay:10.37,2013-02-12 05:36:00,
2013-02-11 23:41:00,15.9,10.8,30.09,WNW,293,2.3,2.3,80,0.00,CLR,,0.00,WeatherDisplay:10.37,2013-02-12 05:41:00,
2013-02-11 23:46:00,15.8,10.7,30.09,WNW,292,4.0,0.0,80,0.00,CLR,,0.00,WeatherDisplay:10.37,2013-02-12 05:46:00,
2013-02-11 23:51:00,15.7,10.6,30.09,West,277,0.0,0.0,80,0.00,CLR,,0.00,WeatherDisplay:10.37,2013-02-12 05:51:00,
2013-02-11 23:56:00,15.5,10.4,30.09,West,265,2.3,2.3,80,0.00,CLR,,0.00,WeatherDisplay:10.37,2013-02-12 05:56:00,